Location: Unspecified
(0.0000°N, 0.0000°E)
Time: 22:25:31
(UTC+02:00)

Vanguard 2 - All Passes

Search period start: 24 June 2018 00:00
Search period end: 04 July 2018 00:00
Orbit: 553 x 2939 km, 32.9° (Epoch: 23 June)

Date Brightness Start Highest point End Pass type
(mag) Time Alt. Az. Time Alt. Az. Time Alt. Az.
24 Jun - 00:01:51 10° SW 00:19:11 73° SE 00:30:41 10° ENE visible
24 Jun - 02:17:07 10° WSW 02:30:06 41° NW 02:38:26 10° NNE night (unlit)
24 Jun - 11:11:24 10° NNW 11:14:56 22° NE 11:19:30 10° E daylight
24 Jun - 13:17:50 10° WNW 13:23:20 56° SSW 13:32:26 10° SE daylight
24 Jun - 15:28:51 10° WSW 15:34:56 20° SSW 15:43:14 10° SSE daylight
24 Jun - 17:44:37 10° SSW 17:50:19 13° S 17:56:47 10° SSE daylight
24 Jun - 19:57:08 10° SSW 20:08:07 20° SSE 20:19:29 10° ESE daylight
24 Jun - 22:07:50 10° SW 22:24:14 42° SSE 22:37:43 10° E visible
25 Jun - 00:20:13 10° SW 00:37:32 88° NW 00:48:53 10° NE visible
25 Jun - 02:36:59 10° W 02:48:08 29° NW 02:55:45 10° NNE visible
25 Jun - 11:28:38 10° NNW 11:32:49 39° NE 11:38:46 10° ESE daylight
25 Jun - 13:36:24 10° W 13:41:48 36° SSW 13:50:18 10° SE daylight
25 Jun - 15:49:03 10° SW 15:54:12 15° SSW 16:00:40 10° SSE daylight
25 Jun - 18:04:30 10° SSW 18:10:18 13° S 18:16:48 10° SSE daylight
25 Jun - 20:15:10 10° SSW 20:27:45 24° SSE 20:40:29 10° ESE visible
25 Jun - 22:25:45 10° SW 22:43:04 52° SSE 22:56:50 10° ENE visible
26 Jun - 00:38:51 10° WSW 00:55:46 69° NW 01:06:50 10° NE visible
26 Jun - 02:57:34 10° W 03:06:18 21° NW 03:12:46 10° N visible
26 Jun - 11:46:18 10° NW 11:50:44 72° NE 11:57:27 10° ESE daylight
26 Jun - 13:55:22 10° WSW 14:00:29 25° SSW 14:07:54 10° SSE daylight
26 Jun - 16:09:57 10° SSW 16:13:40 12° S 16:17:57 10° SSE daylight
26 Jun - 18:23:25 10° SSW 18:30:18 14° SSE 18:37:59 10° SE daylight
26 Jun - 20:33:00 10° SSW 20:47:06 30° SSE 21:01:00 10° E visible
26 Jun - 22:43:47 10° SW 23:01:43 66° SE 23:15:32 10° ENE visible
27 Jun - 00:57:52 10° WSW 01:13:54 53° NW 01:24:36 10° NE visible
27 Jun - 03:19:15 10° WNW 03:24:41 14° NW 03:29:10 10° N visible
27 Jun - 09:59:03 10° N 10:00:48 12° NE 10:02:41 10° ENE daylight
27 Jun - 12:04:21 10° WNW 12:08:51 64° SSW 12:15:42 10° SE daylight
27 Jun - 14:14:56 10° WSW 14:19:21 17° SSW 14:25:10 10° SSE daylight
27 Jun - 16:31:56 10° S 16:33:20 10° S 16:34:47 10° S daylight
27 Jun - 18:41:37 10° SSW 18:50:08 16° SSE 18:59:42 10° SE daylight
27 Jun - 20:50:48 10° SSW 21:06:11 37° SSE 21:20:59 10° E visible
27 Jun - 23:01:58 10° SW 23:20:11 82° SE 23:33:57 10° ENE visible
28 Jun - 01:17:20 10° WSW 01:32:02 40° NW 01:42:10 10° NNE visible
28 Jun - 10:15:31 10° NNW 10:18:49 24° NE 10:22:39 10° E daylight
28 Jun - 12:22:46 10° W 12:27:09 37° SSW 12:33:35 10° SE daylight
28 Jun - 14:35:27 10° SW 14:38:25 12° SSW 14:41:51 10° S daylight
28 Jun - 18:59:27 10° SSW 19:09:45 20° SSE 19:21:19 10° ESE daylight
28 Jun - 21:08:36 10° SW 21:25:02 47° SSE 21:40:27 10° E visible
28 Jun - 23:20:23 10° WSW 23:38:33 81° NW 23:52:07 10° NE visible
29 Jun - 01:37:22 10° W 01:50:16 30° NW 01:59:33 10° NNE visible
29 Jun - 10:32:56 10° NW 10:36:46 47° NE 10:41:34 10° ESE daylight
29 Jun - 12:41:41 10° WSW 12:45:39 23° SSW 12:51:04 10° SSE daylight
29 Jun - 17:11:03 10° S 17:12:57 10° SSE 17:14:57 10° SSE daylight
29 Jun - 19:17:08 10° SSW 19:29:05 25° SSE 19:42:27 10° ESE daylight
29 Jun - 21:26:29 10° SW 21:43:41 59° SE 21:59:30 10° ENE visible
29 Jun - 23:39:05 10° WSW 23:56:49 65° NW 00:10:02 10° NE visible
30 Jun - 01:58:05 10° W 02:08:41 22° NW 02:16:43 10° NNE visible
30 Jun - 10:50:48 10° WNW 10:54:47 84° SSW 10:59:57 10° SE daylight
30 Jun - 13:01:19 10° SW 13:04:20 15° SSW 13:08:03 10° SSE daylight
30 Jun - 17:27:56 10° S 17:32:42 12° SSE 17:38:02 10° SE daylight
30 Jun - 19:34:46 10° SSW 19:48:08 32° SSE 20:02:59 10° E daylight
30 Jun - 21:44:30 10° SW 22:02:12 73° SE 22:18:10 10° ENE visible
30 Jun - 23:58:12 10° WSW 00:15:06 51° NW 00:27:48 10° NE visible
01 Jul - 02:19:42 10° WNW 02:27:21 16° NNW 02:33:32 10° N visible
01 Jul - 09:02:11 10° N 09:04:45 16° NNE 09:07:17 10° ENE daylight
01 Jul - 11:09:06 10° WNW 11:12:56 41° SSW 11:17:53 10° SE daylight
01 Jul - 17:45:08 10° S 17:52:14 15° SSE 18:00:33 10° SE daylight
01 Jul - 19:52:26 10° SSW 20:06:56 41° SSE 20:22:55 10° E daylight
01 Jul - 22:02:43 10° SW 22:20:38 89° SE 22:36:32 10° NE visible
02 Jul - 00:17:45 10° W 00:33:26 39° NW 00:45:24 10° NNE visible
02 Jul - 02:42:51 10° NW 02:46:17 11° NNW 02:49:23 10° NNW visible
02 Jul - 09:19:15 10° NNW 09:22:53 31° NE 09:26:33 10° E daylight
02 Jul - 11:27:54 10° W 11:31:15 23° SSW 11:35:22 10° SSE daylight
02 Jul - 18:02:25 10° SSW 18:11:31 20° SSE 18:22:28 10° ESE daylight
02 Jul - 20:10:10 10° SW 20:25:33 51° SE 20:42:21 10° ENE visible
02 Jul - 22:21:10 10° WSW 22:39:00 75° NW 22:54:39 10° NE visible
03 Jul - 00:37:53 10° W 00:51:56 30° NW 01:02:52 10° NNE visible
03 Jul - 09:36:56 10° NW 09:40:56 67° NE 09:45:05 10° ESE daylight
03 Jul - 11:47:37 10° SW 11:49:43 13° SSW 11:52:05 10° S daylight
03 Jul - 18:19:48 10° SSW 18:30:30 26° SSE 18:43:40 10° E daylight
03 Jul - 20:28:01 10° SW 20:44:02 64° SE 21:01:20 10° ENE visible
03 Jul - 22:39:56 10° WSW 22:57:23 60° NW 23:12:35 10° NE visible
